Location: downtown San Diego
(32.7310°N, 117.1990°W)
Time: 04:05:15
(UTC-07:00)

Meteor 2-2 Rocket - Pass Details

Date: 12 July 2018
Orbit: 853 x 928 km, 81.3° (Epoch: 24 September)

Event Time Altitude Azimuth Distance (km) Brightness Sun altitude
Rises 20:47:42 0° 353° (N) 3,463 8.0 -9.7°
Reaches altitude 10° 20:50:08 10° 355° (N) 2,531 7.3 -10.1°
Maximum altitude 20:55:54 79° 82° (E) 907 4.3 -11.1°
Drops below altitude 10° 21:01:45 10° 169° (S) 2,569 6.3 -12.1°
Enters shadow 21:02:46 - 170° (S) 2,952 6.6 -12.3°
